This demonstration page uses our WeatherBlox Daily Observations layout. Learn more.

Left ArrowRight Arrow

Hourly Observations for January 30, 2019

Temp ( °F °C ) Dew Point ( °F °C ) Humidity (%) Winds ( mph kmh ) Pressure ( in mb ) Visibility ( mi km ) Precip ( " mm )
12:53 am 00:53 Clear 27 -2.8 9 -12.8 46 46 NW 5 7 30.16 1021 10 16 0.00 0.00
1:53 am 01:53 Clear 26 -3.3 8 -13.3 46 46 Calm 30.15 1021 10 16 0.00 0.00
2:53 am 02:53 Clear 25 -3.9 10 -12.2 53 53 Calm 30.17 1022 10 16 0.00 0.00
3:53 am 03:53 Clear 24 -4.4 11 -11.7 57 57 WSW 3 6 30.19 1022 10 16 0.00 0.00
4:53 am 04:53 Clear 24 -4.4 11 -11.7 57 57 SW 3 6 30.19 1022 10 16 0.00 0.00
5:53 am 05:53 Clear 23 -5 13 -10.6 65 65 SW 3 6 30.20 1023 10 16 0.00 0.00
6:53 am 06:53 Clear 23 -5 13 -10.6 65 65 SW 3 6 30.21 1023 10 16 0.00 0.00
7:53 am 07:53 Sunny 22 -5.6 14 -10 71 71 SW 3 6 30.23 1024 10 16 0.00 0.00
10:53 am 10:53 Sunny 35 1.7 12 -11.1 38 38 W 15 24 30.28 1025 10 16 0.00 0.00
11:53 am 11:53 Sunny 37 2.8 14 -10 39 39 NW 14 22 30.28 1025 10 16 0.00 0.00
12:53 pm 12:53 Sunny 40 4.4 16 -8.9 38 38 W 12 19 30.26 1025 10 16 0.00 0.00
1:53 pm 13:53 Sunny 42 5.6 17 -8.3 36 36 W 14 22 30.24 1024 10 16 0.00 0.00
2:53 pm 14:53 Sunny 43 6.1 17 -8.3 35 35 WNW 12 19 30.23 1024 10 16 0.00 0.00
3:53 pm 15:53 Sunny 42 5.6 17 -8.3 36 36 WNW 15 24 30.24 1024 10 16 0.00 0.00
4:53 pm 16:53 Sunny 41 5 18 -7.8 39 39 W 10 17 30.25 1024 10 16 0.00 0.00
5:53 pm 17:53 Sunny 39 3.9 18 -7.8 43 43 WNW 8 13 30.25 1024 10 16 0.00 0.00
6:53 pm 18:53 Clear 37 2.8 19 -7.2 48 48 NW 3 6 30.26 1025 10 16 0.00 0.00
7:53 pm 19:53 Clear 35 1.7 19 -7.2 52 52 W 3 6 30.27 1025 10 16 0.00 0.00
8:53 pm 20:53 Clear 32 0 20 -6.7 61 61 Calm 30.29 1026 10 16 0.00 0.00
9:53 pm 21:53 Clear 33 0.6 20 -6.7 58 58 Calm 30.30 1026 10 16 0.00 0.00
10:53 pm 22:53 Clear 31 -0.6 19 -7.2 61 61 Calm 30.31 1026 10 16 0.00 0.00
11:53 pm 23:53 Clear 31 -0.6 18 -7.8 59 59 Calm 30.33 1027 10 16 0.00 0.00

Powered by AerisWeather